[[[{"header":{"parameterUnit":"kt","parameterCategory":2,"dx":1,"dy":1,"la1":30.253999710083008,"la2":30.299108505249023,"lo1":-89.0895004272461,"lo2":-89.04439544677734,"nx":28,"ny":28,"refTime":"2022-10-05T21:00:00:Z","depth":0,"parameterNumber":1,"parameterNumberName":"U-component_of_WINDS"},"data":[-0.1316,-0.1267,-0.1245,-0.118,-0.1149,-0.1101,-0.1076,-0.1043,-0.101,-0.0951,-0.0913,-0.0885,-0.0844,-0.0794,-0.0752,-0.074,-0.0724,-0.0725,-0.0711,-0.0728,-0.0729,-0.0729,-0.0739,-0.0722,-0.0722,-0.0697,-0.0697,-0.0697,-0.1339,-0.1308,-0.1266,-0.121,-0.1174,-0.1162,-0.1116,-0.1087,-0.1044,-0.1003,-0.0963,-0.0908,-0.0861,-0.0818,-0.0769,-0.0747,-0.0737,-0.0736,-0.0737,-0.073,-0.0748,-0.0759,-0.0745,-0.0745,-0.0745,-0.0745,-0.0745,-0.0745,-0.1374,-0.1345,-0.1297,-0.1251,-0.1216,-0.1179,-0.1147,-0.1113,-0.1071,-0.1016,-0.0996,-0.0946,-0.0899,-0.0827,-0.0797,-0.0758,-0.0755,-0.0745,-0.0743,-0.0741,-0.0743,-0.0786,-0.0748,-0.0748,-0.0748,-0.0748,-0.0748,0,-0.1393,-0.1376,-0.1332,-0.1283,-0.1247,-0.1206,-0.1164,-0.1143,-0.1097,-0.1064,-0.1014,-0.0981,-0.0917,-0.0867,-0.0814,-0.0783,-0.0764,-0.0758,-0.0752,-0.0761,-0.0779,-0.0771,-0.0801,-0.0759,-0.0759,-0.0759,-0.0759,-0.0759,-0.1428,-0.1394,-0.1331,-0.1304,-0.1274,-0.123,-0.1199,-0.1159,-0.1128,-0.107,-0.1046,-0.0995,-0.0951,-0.0875,-0.0832,-0.0783,-0.0772,-0.076,-0.0764,-0.0777,-0.0773,-0.0776,-0.0773,-0.0759,-0.0759,-0.0759,-0.0759,0,-0.145,-0.141,-0.135,-0.1289,-0.1273,-0.1241,-0.1189,-0.1157,-0.1125,-0.1076,-0.1062,-0.1012,-0.0962,-0.0921,-0.0854,-0.0834,-0.0784,-0.0774,-0.0801,-0.0797,-0.0783,-0.0785,-0.0738,-0.0731,-0.0748,-0.0748,-0.0748,0,-0.1464,-0.1421,-0.1364,-0.1331,-0.1283,-0.1242,-0.1196,-0.1163,-0.1119,-0.108,-0.1051,-0.1015,-0.0966,-0.0925,-0.0895,-0.0846,-0.0832,-0.0814,-0.0806,-0.0816,-0.0819,-0.0797,-0.0798,-0.0788,-0.0788,-0.0788,-0.0789,0,-0.1503,-0.142,-0.1366,-0.134,-0.1268,-0.1244,-0.1213,-0.1162,-0.113,-0.1083,-0.1062,-0.1009,-0.098,-0.094,-0.0901,-0.0906,-0.0839,-0.0837,-0.082,-0.0821,-0.0805,-0.0806,-0.0777,-0.0789,-0.0789,-0.0789,-0.0789,0,-0.1507,-0.1458,-0.1385,-0.1325,-0.1304,-0.1268,-0.1213,-0.1172,-0.112,-0.1098,-0.1059,-0.1033,-0.0984,-0.0987,-0.092,-0.0938,-0.0912,-0.0889,-0.0887,-0.0878,-0.0882,-0.0872,-0.0848,-0.0844,-0.0875,-0.0875,-0.0876,0,-0.1564,-0.1477,-0.1441,-0.1371,-0.1325,-0.1295,-0.1254,-0.1207,-0.1174,-0.1131,-0.1094,-0.1043,-0.1036,-0.1014,-0.0986,-0.0945,-0.0922,-0.0947,-0.0886,-0.0885,-0.0903,-0.088,-0.0887,-0.0858,-0.0884,-0.0883,-0.0883,0,-0.1602,-0.1512,-0.1502,-0.1471,-0.1401,-0.136,-0.1313,-0.1253,-0.1226,-0.1175,-0.1135,-0.1061,-0.1053,-0.1015,-0.0986,-0.096,-0.0937,-0.0954,-0.0952,-0.0953,-0.0884,-0.0891,-0.0887,-0.0924,-0.0923,-0.0922,-0.0889,0,-0.1621,-0.1569,-0.1539,-0.1467,-0.1429,-0.1381,-0.1333,-0.1299,-0.1276,-0.1241,-0.1179,-0.1124,-0.1061,-0.1043,-0.1018,-0.097,-0.097,-0.0961,-0.0958,-0.0943,-0.0932,-0.0926,-0.098,-0.098,-0.098,-0.0979,0,0,-0.1686,-0.1611,-0.1568,-0.1518,-0.1483,-0.1449,-0.1402,-0.1364,-0.1285,-0.1262,-0.1261,-0.1148,-0.1103,-0.1032,-0.1024,-0.0997,-0.0984,-0.0989,-0.095,-0.0947,-0.0944,-0.0933,-0.0928,-0.0979,-0.0979,-0.0979,-0.0978,0,-0.1682,-0.1637,-0.159,-0.1549,-0.1485,-0.1448,-0.1438,-0.1367,-0.1341,-0.1277,-0.1248,-0.1204,-0.1112,-0.107,-0.1036,-0.0998,-0.0977,-0.0982,-0.0979,-0.0949,-0.0946,-0.0944,-0.0932,-0.0928,-0.0978,-0.0978,-0.0978,0,-0.1711,-0.166,-0.1631,-0.1547,-0.1503,-0.1454,-0.1441,-0.1388,-0.1352,-0.1312,-0.1249,-0.1212,-0.1148,-0.1086,-0.1056,-0.1053,-0.0974,-0.0987,-0.0988,-0.0983,-0.0951,-0.0948,-0.0946,-0.0981,-0.0981,-0.0982,0,0,-0.1714,-0.1665,-0.1594,-0.1541,-0.1517,-0.146,-0.1427,-0.1399,-0.1343,-0.1321,-0.1271,-0.1217,-0.1164,-0.1129,-0.1075,-0.1013,-0.0997,-0.099,-0.099,-0.099,-0.0985,-0.0953,-0.095,-0.0983,-0.0983,-0.0983,0,0,-0.1715,-0.1631,-0.1616,-0.1549,-0.1498,-0.1423,-0.1393,-0.1373,-0.1319,-0.1318,-0.1266,-0.1249,-0.1189,-0.1152,-0.117,-0.1073,-0.1072,-0.1066,-0.1099,-0.1098,-0.1098,-0.1107,-0.1146,0,0,0,0,0,-0.1683,-0.1642,-0.1629,-0.161,-0.15,-0.143,-0.1416,-0.1372,-0.1374,-0.1352,-0.1307,-0.1285,-0.1152,-0.1167,-0.1148,-0.1127,-0.0994,-0.0992,-0.099,-0.1017,-0.1017,-0.1017,0,0,0,0,0,0,-0.1675,-0.1652,-0.163,-0.1555,-0.1529,-0.1431,-0.1424,-0.1411,-0.1375,-0.1372,-0.1295,-0.1283,-0.1244,-0.1173,-0.1157,-0.1138,-0.1151,-0.0993,-0.0991,-0.099,-0.1017,-0.1017,-0.1017,0,0,0,0,0,-0.1669,-0.165,-0.1485,-0.1555,-0.1533,-0.1466,-0.1425,-0.1414,-0.1386,-0.1314,-0.1302,-0.1356,-0.1244,-0.1228,-0.1163,-0.1147,-0.1162,-0.1156,-0.0992,-0.0991,-0.0989,-0.1017,0,0,0,0,0,0,-0.1664,-0.164,-0.148,-0.1472,-0.1566,-0.147,-0.1454,-0.1417,-0.1329,-0.1316,-0.1373,-0.1372,-0.1244,-0.1231,-0.1219,-0.1152,-0.117,-0.1164,-0.1161,-0.0991,-0.099,-0.0989,0,0,0,0,0,0,-0.1649,-0.1633,-0.1476,-0.1493,-0.1486,-0.1475,-0.146,-0.1397,-0.1328,-0.1392,-0.1388,-0.1373,-0.1263,-0.1234,-0.1224,-0.1128,-0.1177,-0.1171,-0.1167,-0.1165,-0.099,-0.0989,0,0,0,0,0,0,-0.1642,-0.1627,-0.1495,-0.1489,-0.1483,-0.1387,-0.1418,-0.1307,-0.1344,-0.1396,-0.1346,-0.1347,-0.1266,-0.1255,-0.1228,-0.1136,-0.113,-0.1177,-0.1173,-0.117,-0.1168,0,0,0,0,0,0,0,-0.1635,-0.174,-0.1529,-0.1487,-0.1481,-0.1396,-0.1393,-0.1391,-0.1345,-0.1345,-0.1346,-0.1347,-0.1209,-0.1203,-0.1197,-0.1142,0,0,-0.1177,-0.1175,0,0,0,0,0,0,0,0,-0.1745,-0.1742,-0.1529,-0.1527,-0.1526,-0.1395,-0.1393,-0.1391,-0.1345,-0.1345,-0.1346,-0.1347,-0.1207,-0.1202,-0.1197,0,0,0,0,0,0,0,0,0,0,0,0,0,0,0,-0.1529,-0.1527,0,-0.1395,-0.1393,-0.1392,-0.1345,-0.1345,-0.1346,-0.1346,-0.1206,-0.1202,-0.1198,0,0,0,0,0,0,0,0,0,0,0,0,0,0,0,0,0,0,0,0,0,0,0,0,0,0,0,0,0,0,0,0,0,0,0,0,0,0,0,0,0,0,0,0,0,0,0,0,0,0,0,0,0,0,0,0,0,0,0,0,0,0,0,0,0,0,0,0,0]}],[{"header":{"parameterUnit":"kt","parameterCategory":2,"dx":1,"dy":1,"la1":30.253999710083008,"la2":30.299108505249023,"lo1":-89.0895004272461,"lo2":-89.04439544677734,"nx":28,"ny":28,"refTime":"2022-10-05T21:00:00:Z","depth":0,"parameterNumber":2,"parameterNumberName":"V-component_of_WINDS"},"data":[4.5082,4.5076,4.5074,4.5064,4.5061,4.5053,4.5049,4.5042,4.5037,4.5023,4.5015,4.501,4.5001,4.4988,4.4976,4.4973,4.4967,4.4964,4.4961,4.498,4.4982,4.4984,4.4986,4.4964,4.4964,4.4942,4.4942,4.4941,4.5085,4.5082,4.5079,4.5074,4.5069,4.5069,4.5064,4.5059,4.5051,4.5045,4.5038,4.5026,4.5016,4.5009,4.4997,4.4989,4.4988,4.4985,4.4985,4.4983,4.5003,4.5005,4.4986,4.4986,4.4986,4.4986,4.4986,4.4986,4.509,4.5088,4.5086,4.5082,4.5079,4.5075,4.5071,4.5068,4.5063,4.5056,4.5055,4.5045,4.5037,4.5024,4.5019,4.5009,4.5011,4.5008,4.5006,4.5005,4.5002,4.5025,4.5007,4.5008,4.5008,4.5008,4.5008,0,4.5093,4.5093,4.5092,4.5088,4.5086,4.5084,4.5081,4.5079,4.5078,4.5073,4.5066,4.5062,4.5051,4.5042,4.5033,4.5029,4.5028,4.5029,4.5026,4.5025,4.5022,4.5019,4.5048,4.503,4.503,4.503,4.503,4.503,4.5095,4.5095,4.5095,4.5093,4.5094,4.5092,4.509,4.509,4.5088,4.5083,4.508,4.5073,4.5068,4.5055,4.5051,4.5042,4.5042,4.5034,4.5041,4.5038,4.5037,4.5036,4.5033,4.5032,4.5032,4.5032,4.5032,0,4.5095,4.5098,4.5098,4.5099,4.5099,4.5097,4.5096,4.5093,4.5093,4.5088,4.5087,4.5086,4.5079,4.5077,4.5069,4.5067,4.5054,4.5056,4.5055,4.5054,4.5044,4.5044,4.502,4.5015,4.5042,4.5042,4.5042,0,4.5096,4.5097,4.51,4.5101,4.5099,4.5102,4.51,4.51,4.5098,4.5095,4.5097,4.5094,4.5094,4.5088,4.5087,4.5077,4.5077,4.5074,4.5073,4.5073,4.5072,4.5069,4.5069,4.5077,4.5077,4.5077,4.5077,0,4.5095,4.5101,4.5102,4.5103,4.5107,4.5106,4.5106,4.5107,4.5106,4.5104,4.5102,4.51,4.5098,4.5094,4.5093,4.5097,4.5083,4.5088,4.5079,4.5079,4.5076,4.5076,4.5057,4.5078,4.5078,4.5078,4.5078,0,4.5097,4.5101,4.5104,4.5106,4.5107,4.5109,4.5108,4.511,4.5109,4.511,4.5109,4.5111,4.5107,4.5111,4.5103,4.5108,4.5105,4.5103,4.5103,4.5101,4.5106,4.5091,4.5076,4.5072,4.5098,4.5099,4.5099,0,4.5091,4.5099,4.5104,4.5107,4.511,4.5114,4.5114,4.5117,4.5118,4.5118,4.5119,4.5119,4.5124,4.5124,4.512,4.512,4.5113,4.5121,4.5113,4.5113,4.511,4.5097,4.5094,4.5079,4.5101,4.5101,4.5101,0,4.5089,4.5099,4.51,4.5101,4.511,4.5114,4.5116,4.512,4.5119,4.5124,4.5122,4.5126,4.5127,4.5129,4.5132,4.5128,4.5117,4.5131,4.5131,4.5125,4.5105,4.5101,4.5099,4.5119,4.5119,4.5119,4.5103,0,4.5083,4.5091,4.5096,4.5105,4.5109,4.5115,4.5121,4.5123,4.5126,4.513,4.513,4.5135,4.5138,4.5139,4.5143,4.5137,4.5137,4.5141,4.5145,4.5137,4.5131,4.513,4.5152,4.5152,4.5152,4.5152,0,0,4.5075,4.5088,4.5098,4.5104,4.5108,4.5115,4.5119,4.5124,4.5134,4.5135,4.5138,4.5144,4.5149,4.5149,4.5147,4.515,4.5147,4.5152,4.5142,4.514,4.5139,4.5133,4.5132,4.5152,4.5152,4.5152,4.5153,0,4.5076,4.5088,4.5095,4.5101,4.5111,4.5117,4.5118,4.5129,4.5132,4.5138,4.5142,4.5143,4.5152,4.5154,4.5156,4.5152,4.5155,4.5153,4.5148,4.5143,4.5142,4.514,4.5134,4.5133,4.5153,4.5153,4.5153,0,4.5072,4.5083,4.5089,4.5105,4.5112,4.5118,4.5124,4.5132,4.5134,4.5143,4.5148,4.5152,4.5157,4.516,4.5162,4.5164,4.516,4.5165,4.5164,4.5164,4.516,4.5158,4.5157,4.5175,4.5175,4.5175,0,0,4.5071,4.5081,4.5095,4.5106,4.511,4.512,4.5126,4.5131,4.5139,4.5142,4.5149,4.5154,4.5157,4.516,4.5165,4.5169,4.5168,4.5168,4.5166,4.5166,4.5165,4.516,4.5159,4.5175,4.5175,4.5175,0,0,4.5071,4.5088,4.5092,4.5107,4.5115,4.5128,4.5133,4.5137,4.5144,4.5144,4.5152,4.5154,4.5157,4.5162,4.5164,4.5166,4.517,4.517,4.5164,4.5162,4.5161,4.5159,4.517,0,0,0,0,0,4.5077,4.5086,4.5089,4.5094,4.5116,4.5127,4.5129,4.5138,4.5139,4.5142,4.5147,4.5152,4.5163,4.5165,4.5167,4.5165,4.5178,4.5177,4.5177,4.5169,4.5167,4.5166,0,0,0,0,0,0,4.5079,4.5084,4.5089,4.5104,4.5109,4.5127,4.5131,4.5133,4.5139,4.514,4.5151,4.5153,4.5159,4.5165,4.5166,4.5164,4.517,4.5177,4.5177,4.5177,4.5168,4.5167,4.5166,0,0,0,0,0,4.508,4.5084,4.5119,4.5103,4.5108,4.5121,4.5131,4.5133,4.5137,4.5148,4.515,4.5144,4.5158,4.516,4.5166,4.5163,4.5169,4.5169,4.5177,4.5177,4.5177,4.5168,0,0,0,0,0,0,4.5081,4.5085,4.512,4.5121,4.5102,4.512,4.5124,4.5132,4.5145,4.5147,4.5141,4.5142,4.5158,4.516,4.5161,4.5162,4.5168,4.5168,4.5169,4.5177,4.5177,4.5176,0,0,0,0,0,0,4.5083,4.5086,4.5121,4.5119,4.512,4.5119,4.5122,4.5129,4.5145,4.5137,4.5138,4.5141,4.5155,4.516,4.5161,4.5171,4.5167,4.5168,4.5168,4.5168,4.5177,4.5177,0,0,0,0,0,0,4.5084,4.5087,4.5119,4.512,4.5121,4.5138,4.5125,4.5147,4.5146,4.5137,4.5146,4.5146,4.5155,4.5156,4.516,4.517,4.5171,4.5167,4.5167,4.5168,4.5168,0,0,0,0,0,0,0,4.5086,4.5065,4.5111,4.512,4.5121,4.5135,4.5135,4.5136,4.5146,4.5146,4.5146,4.5146,4.5163,4.5164,4.5165,4.5169,0,0,4.5167,4.5167,0,0,0,0,0,0,0,0,4.5064,4.5065,4.5111,4.5112,4.5112,4.5135,4.5135,4.5136,4.5146,4.5146,4.5146,4.5146,4.5164,4.5164,4.5165,0,0,0,0,0,0,0,0,0,0,0,0,0,0,0,4.5111,4.5112,0,4.5135,4.5135,4.5135,4.5146,4.5146,4.5146,4.5146,4.5164,4.5164,4.5165,0,0,0,0,0,0,0,0,0,0,0,0,0,0,0,0,0,0,0,0,0,0,0,0,0,0,0,0,0,0,0,0,0,0,0,0,0,0,0,0,0,0,0,0,0,0,0,0,0,0,0,0,0,0,0,0,0,0,0,0,0,0,0,0,0,0,0,0,0]}]]]